User: anonymous   Login
Location: Paderno d�Adda
(45.6667°N, 9.4333°E)
Time: 05:13:01
(UTC+00:00)
Language:

Ariane Rocket - Orbit

View from above orbital plane
View from above orbital plane
View from above satellite
View from above satellite

Ground track
Ground track

The orbit data is extracted from the following two-line orbital elements,

1 23561U 95021B   20338.90661953  .00000071  00000-0  38599-4 0  9995
2 23561  98.7037  20.5210 0007991 109.9028  62.9621 14.37996370343148
Epoch (UTC): 03 December 2020 21:45:31
Eccentricity: 0.0007991
inclination: 98.7037°
perigee height: 759 km
apogee height: 771 km
right ascension of ascending node: 20.5210°
argument of perigee: 109.9028°
revolutions per day: 14.37996370
mean anomaly at epoch: 62.9621°
orbit number at epoch: 34314

The dashed part of the orbit path shows where the satellite is in the earth's shadow,  

DLR